リニア彗星

187P/LINEAR (1999)

English version
Home page
Updated on May 25, 2008

---------------------------------------------------------------------

・ プロフィール

符号 187P/1999 J5
発見日 1999年 5月12日
発見光度 19.0等
発見者 Lincoln Laboratory Near-Earth Asteroid Research project

・ 軌道要素

                    Epoch = 1999 May  22.0 TT
     T = 1999 May  12.1310 TT         Peri. = 132.1799
     e = 0.169470                     Node  = 112.0187  2000.0
     q = 3.712711 AU                  Incl. =  13.7164
       a =  4.470289 AU    n = 0.1042799    P =   9.45 years

・ 星図

・ 光度変化

        m1 = -13.0 + 5 logΔ + 50.0 log r

---------------------------------------------------------------------

軌道要素は G. V. Williams の計算によるもので、 IAUC 8827 に掲載されたものです。
星図は StellaNavigator Ver.2.0 for Windows (アストロアーツ 編著 / アスキー出版局刊) で作成したものです。
光度グラフはComet for Windowsで作成したものです。

---------------------------------------------------------------------

Copyright(C) Seiichi Yoshida (comet@aerith.net). All rights reserved.